Regional Weather Roundup
Issued by NWS Sterling, VA

Home | Current Version | Previous Version | Graphics & Text | Print | Product List | Glossary On
Versions: 1 2 3 4 5 6 7 8 9 10 11 12 13 14 15 16 17 18 19 20 21 22 23 24 25 26 27 28 29 30 31 32 33 34 35 36 37 38 39 40 41 42 43 44 45 46 47 48 49 50
249
ASUS41 KLWX 201610
RWRLWX

REGIONAL WEATHER ROUNDUP
NATIONAL WEATHER SERVICE BALTIMORE MD/WASHINGTON DC
1100 AM EST FRI JAN 20 2017

Note: "FAIR" indicates few or no clouds below 12,000 feet
with no significant weather and/or obstructions to visibility.
 TC=TEMPERATURE CELSIUS

 * =Non NWS site. Station does not report precipitation (e.g. rain,
    snow, etc.), thunder, or fog.

DCZ001-MDZ009-015-VAZ040>042-051-053>054-201700-
WASHINGTON METRO

CITY           SKY/WX    TMP DP  RH WIND       PRES   REMARKS
WASHINGTON NAT CLOUDY    46  40  79 CALM      29.96F
DULLES         CLOUDY    44  38  79 S6        29.93F
ANDREWS AFB    CLOUDY    42  38  84 SE7       29.94F
FT BELVOIR     CLOUDY    44  38  81 SE3       29.95F
QUANTICO       CLOUDY    43  40  89 CALM      29.96F
COLLEGE PARK*  CLOUDY    41  37  87 CALM      29.96S
LEESBURG*      LGT RAIN  45  43  93 MISG      29.93F
MANASSAS*      CLOUDY   N/A N/A N/A S6        29.95F
GAITHERSBURG*  CLOUDY    41  36  81 SE8       29.98F

$$

MDZ006>007-011-014-201700-
BALTIMORE METRO

CITY           SKY/WX    TMP DP  RH WIND       PRES   REMARKS
BWI AIRPORT    CLOUDY    40  39  97 E6        29.96F FOG
MD SCIENCE CTR   N/A     42  37  82 MISG      29.97F
MARTIN STATE   LGT RAIN  39  39 100 NE5       30.00F
ANNAPOLIS      CLOUDY    41  38  89 SE3       29.97F FOG
FORT MEADE*    CLOUDY    39  37  93 CALM      29.99F

$$

MDZ012-015-019>023-201700-
MARYLAND EASTERN SHORE

CITY           SKY/WX    TMP DP  RH WIND       PRES   REMARKS
OCEAN CITY     CLOUDY    44  42  93 E3        30.00S
SALISBURY      CLOUDY    43  41  93 E5        29.98F
BAY BRIDGE AP* CLOUDY    41  39  93 E6        29.97F FOG
CAMBRIDGE*     CLOUDY    41  39  93 E3        29.96F

$$

MDZ017>025-201700-
SOUTHERN MARYLAND

CITY           SKY/WX    TMP DP  RH WIND       PRES   REMARKS
PATUXENT RIVER CLOUDY    42  41  96 SE9       29.97F
ST INIGOES     CLOUDY    46  41  82 SE3       29.96F
LEONARDTOWN*   CLOUDY    45  39  81 S3        29.97F

$$

MDZ003>005-201700-
NORTH CENTRAL MARYLAND

CITY           SKY/WX    TMP DP  RH WIND       PRES   REMARKS
FREDERICK*     CLOUDY    37  37 100 N3        29.97F FOG
HAGERSTOWN APT CLOUDY    42  38  85 E6        29.87F FOG
WESTMINSTER*     N/A     37  37 100 SE8       29.92F FOG

$$

MDZ501>502-201700-
WESTERN MARYLAND

CITY           SKY/WX    TMP DP  RH WIND       PRES   REMARKS
OAKLAND*         N/A     41  41 100 S7        29.79S
CUMBERLAND*    CLOUDY    37  37 100 CALM      29.91S

$$

VAZ025>031-201700-
SHENANDOAH VALLEY

CITY           SKY/WX    TMP DP  RH WIND       PRES   REMARKS
WINCHESTER*    LGT RAIN  41  37  87 W6        29.90R
FRONT ROYAL*   CLOUDY    41  39  93 CALM      29.88R
LURAY*         CLOUDY    46  46 100 SW6       29.88R
NEW MARKET*    CLOUDY    44  41  91 S3        29.89R
STAUNTON*      CLOUDY    47  44  90 S5        29.92F
WAYNESBORO*    CLOUDY    47  44  88 CALM      29.90R

$$

WVZ021-048>050-054>055-201700-
EASTERN WEST VIRGINIA PANHANDLE

CITY           SKY/WX    TMP DP  RH WIND       PRES   REMARKS
MARTINSBURG    LGT RAIN  41  39  93 CALM      29.88F FOG
PETERSBURG*    CLOUDY    42  39  90 CALM      29.87F

$$

VAZ036>039-050-201700-
CENTRAL FOOTHILLS

CITY           SKY/WX    TMP DP  RH WIND       PRES   REMARKS
CHARLOTTESVILL CLOUDY    45  42  89 S5        29.93S
CULPEPER*      LGT RAIN  43  42  95 S5        29.94F
ORANGE*        RAIN      43  43 100 CALM      29.95F
GORDONSVILLE*  CLOUDY    43  42  99 CALM      29.93S FOG
WARRENTON*     LGT RAIN  44  39  83 S3        29.92F

$$

VAZ055>057-201700-
NORTH AND CENTRAL PIEDMONT

CITY           SKY/WX    TMP DP  RH WIND       PRES   REMARKS
FREDERICKSBRG* CLOUDY    46  42  86 SE7       29.94F
STAFFORD*      CLOUDY    44  42  91 CALM      29.98F

$$

NCZ024-NYZ072-PAZ021-071-VAZ022-071-201700-
OTHER REGIONAL OBSERVATIONS

CITY           SKY/WX    TMP DP  RH WIND       PRES   REMARKS
NEW YORK CITY  CLOUDY    42  32  67 CALM      30.05R
PHILADELPHIA   CLOUDY    40  34  79 CALM      30.03R
PITTSBURGH     CLOUDY    44  44 100 SE7       29.72S
ROANOKE        LGT RAIN  46  45  96 SE5       29.93F
RICHMOND       LGT RAIN  46  42  86 SW5       29.97R
RALEIGH        CLOUDY    51  49  92 N3        29.93R FOG

$$

ANZ530>537-201700-
MARINE OBSERVATIONS

STATION/POSITION TIME  TEMP    WIND        PRES
                       AIR SEA DIR/SP/G
                 (UTC) (F)     (DEG/KT/KT) (MB)
THOMAS PT LIGHT  1600   40 40  110/  3/  3   N/A
BALT KEY BRIDGE  1542   39      80/  7/  8 1015.2F
COVE POINT       1542   40     190/  7/  8 1015.6F
LEWISETTA        1542   46 44  160/  4/  5 1014.5F
SOLOMONS ISLAND  1548      41  120/  7/  8   N/A
PINEY POINT      1548          130/  6/  6   N/A

$$





USA.gov is the U.S. government's official web portal to all federal, state and local government web resources and services.